Location: Doverdale
(52.2833°N, 2.2000°W)
Time: 03:40:13
(UTC+00:00)

SAR-Lupe-4 - Pass Details

Date: 29 October 2020
Orbit: 481 x 484 km, 98.2° (Epoch: 22 November)

Event Time Altitude Azimuth Distance (km) Brightness Sun altitude
Rises 18:36:25 0° 11° (NNE) 2,559 7.1 -17.6°
Reaches altitude 10° 18:38:31 10° 8° (N) 1,674 6.2 -17.9°
Maximum altitude 18:42:02 56° 290° (WNW) 580 4.2 -18.4°
Drops below altitude 10° 18:45:32 10° 211° (SSW) 1,660 6.6 -19.0°
Sets 18:47:36 0° 207° (SSW) 2,535 7.5 -19.3°
